Weather History for KEOE - January, 2014

Change the Weather History Date:

Sunday, January 5, 2014

  Actual Average (KFDW) Record (KFDW)
Temperature  
Mean Temperature 38 °F -  
Max Temperature 42 °F 54 °F 62 °F (2012)
Min Temperature 33 °F 32 °F 33 °F (2014)
Degree Days  
Heating Degree Days 28    
Moisture  
Dew Point 37 °F    
Average Humidity 98    
Maximum Humidity 100    
Minimum Humidity 75    
Precipitation  
Precipitation 0.25 in - - ()
Sea Level Pressure  
Sea Level Pressure 30.08 in    
Wind  
Wind Speed 4 mph (NNE)    
Max Wind Speed 8 mph    
Max Gust Speed -    
Visibility 4 miles    
Events Fog , Rain    
Averages and records for this station are not official NWS values.
T = Trace of Precipitation, MM = Missing Value Source: NWS Daily Summary

Daily Weather History Graph

Daily Weather History Graph

Search for Another Location

Airport or City:

Trip Planner

Search our weather history database for the weather conditions in past years. The results will help you decide how hot, cold, wet, or windy it might be!

Date:

Astronomy

Jan. 05, 2014 Rise Set
Actual Time 7:33 AM EST 5:30 PM EST
Civil Twilight 7:05 AM EST 5:58 PM EST
Nautical Twilight 6:34 AM EST 6:29 PM EST
Astronomical Twilight 6:04 AM EST 7:00 PM EST
Moon 10:27 AM EST (1/5) 10:42 PM EST (1/5)
Length of Visible Light 10h 52m
Length of Day
9h 57m
Waxing Crescent, 24% of the Moon is Illuminated
Jan 5
Waxing Crescent
Jan 7
First Quarter
Jan 15
Full
Jan 24
Last Quarter
Jan 30
New

Hourly Weather History & Observations

Time (EST) Temp. Windchill Dew Point Humidity Pressure Visibility Wind Dir Wind Speed Gust Speed Precip Events Conditions
12:15 AM 33.8 °F 29.6 °F 26.6 °F 75% 30.27 in 10.0 mi NE 4.6 mph - N/A   Overcast
12:35 AM 33.8 °F 29.6 °F 28.4 °F 81% 30.26 in 10.0 mi NNE 4.6 mph - N/A   Overcast
12:55 AM 33.8 °F 29.6 °F 28.4 °F 81% 30.24 in 10.0 mi NNE 4.6 mph - N/A   Overcast
1:15 AM 35.6 °F 29.9 °F 28.4 °F 75% 30.24 in 10.0 mi NNE 6.9 mph - N/A   Overcast
1:35 AM 35.6 °F 30.7 °F 28.4 °F 75% 30.24 in 10.0 mi NNE 5.8 mph - N/A   Overcast
1:55 AM 33.8 °F 28.6 °F 30.2 °F 87% 30.24 in 10.0 mi NNE 5.8 mph - N/A   Light Drizzle
2:15 AM 33.8 °F 27.7 °F 30.2 °F 87% 30.24 in 10.0 mi NNE 6.9 mph - N/A   Overcast
2:35 AM 33.8 °F 27.7 °F 30.2 °F 87% 30.23 in 10.0 mi NNE 6.9 mph - N/A   Overcast
2:55 AM 33.8 °F - 30.2 °F 87% 30.24 in 10.0 mi Calm Calm - N/A   Overcast
3:15 AM 33.8 °F 30.8 °F 32.0 °F 93% 30.23 in 7.0 mi North 3.5 mph - 0.01 in Rain Light Rain
3:35 AM 33.8 °F 29.6 °F 32.0 °F 93% 30.23 in 10.0 mi North 4.6 mph - 0.01 in   Overcast
3:55 AM 33.8 °F 27.7 °F 33.8 °F 100% 30.22 in 10.0 mi North 6.9 mph - 0.01 in   Overcast
4:15 AM 33.8 °F 29.6 °F 33.8 °F 100% 30.22 in 7.0 mi North 4.6 mph - N/A   Overcast
4:35 AM 33.8 °F 28.6 °F 33.8 °F 100% 30.20 in 7.0 mi NNE 5.8 mph - N/A   Overcast
4:55 AM 33.8 °F 27.0 °F 33.8 °F 100% 30.20 in 7.0 mi NNE 8.1 mph - N/A   Overcast
5:15 AM 33.8 °F 27.7 °F 33.8 °F 100% 30.19 in 7.0 mi NNE 6.9 mph - N/A   Overcast
5:35 AM 33.8 °F 29.6 °F 33.8 °F 100% 30.19 in 7.0 mi NE 4.6 mph - N/A   Overcast
5:55 AM 33.8 °F 27.0 °F 33.8 °F 100% 30.19 in 7.0 mi NNE 8.1 mph - N/A   Overcast
6:15 AM 33.8 °F 28.6 °F 33.8 °F 100% 30.19 in 7.0 mi NNE 5.8 mph - N/A   Overcast
6:35 AM 33.8 °F 27.7 °F 33.8 °F 100% 30.17 in 7.0 mi NE 6.9 mph - N/A   Overcast
6:55 AM 33.8 °F 28.6 °F 33.8 °F 100% 30.18 in 7.0 mi North 5.8 mph - N/A   Overcast
7:15 AM 33.8 °F 27.7 °F 33.8 °F 100% 30.17 in 7.0 mi NNE 6.9 mph - N/A   Overcast
7:35 AM 33.8 °F 27.7 °F 33.8 °F 100% 30.17 in 5.0 mi NNE 6.9 mph - N/A   Overcast
7:55 AM 33.8 °F 27.0 °F 33.8 °F 100% 30.16 in 3.0 mi NNE 8.1 mph - 0.01 in   Heavy Drizzle
8:15 AM 33.8 °F 29.6 °F 33.8 °F 100% 30.17 in 4.0 mi North 4.6 mph - N/A Rain Light Rain
8:35 AM 33.8 °F - 33.8 °F 100% 30.17 in 2.5 mi Calm Calm - 0.05 in Rain Light Rain
8:55 AM 35.6 °F 31.7 °F 35.6 °F 100% 30.17 in 1.8 mi North 4.6 mph - 0.07 in   Drizzle
9:15 AM 35.6 °F 29.9 °F 35.6 °F 100% 30.16 in 4.0 mi NNE 6.9 mph - N/A   Overcast
9:35 AM 35.6 °F 30.7 °F 35.6 °F 100% 30.16 in 5.0 mi NNE 5.8 mph - N/A   Overcast
9:55 AM 35.6 °F 29.9 °F 35.6 °F 100% 30.16 in 5.0 mi NNE 6.9 mph - N/A   Overcast
10:15 AM 35.6 °F 30.7 °F 35.6 °F 100% 30.15 in 5.0 mi NE 5.8 mph - N/A   Overcast
10:35 AM 35.6 °F 31.7 °F 35.6 °F 100% 30.15 in 4.0 mi NNE 4.6 mph - N/A   Overcast
10:55 AM 37.4 °F - 37.4 °F 100% 30.14 in 2.5 mi Calm Calm - N/A   Heavy Drizzle
11:15 AM 37.4 °F 34.9 °F 37.4 °F 100% 30.14 in 2.5 mi NW 3.5 mph - N/A   Light Drizzle
11:35 AM 37.4 °F - 37.4 °F 100% 30.13 in 4.0 mi Calm Calm - N/A   Overcast
11:55 AM 37.4 °F 34.9 °F 37.4 °F 100% 30.12 in 2.5 mi West 3.5 mph - N/A   Overcast
12:15 PM 37.4 °F - 37.4 °F 100% 30.11 in 1.8 mi Calm Calm - N/A   Overcast
12:35 PM 37.4 °F 34.9 °F 37.4 °F 100% 30.09 in 1.8 mi WNW 3.5 mph - N/A   Overcast
12:55 PM 37.4 °F - 37.4 °F 100% 30.08 in 1.8 mi Calm Calm - N/A   Overcast
1:15 PM 37.4 °F - 37.4 °F 100% 30.05 in 0.8 mi Calm Calm - N/A   Overcast
1:35 PM 37.4 °F - 37.4 °F 100% 30.05 in 0.5 mi Calm Calm - N/A Fog Fog
1:55 PM 39.2 °F - 39.2 °F 100% 30.05 in 0.5 mi Calm Calm - N/A Fog Fog
2:15 PM 39.2 °F 37.0 °F 39.2 °F 100% 30.04 in 0.2 mi SW 3.5 mph - N/A Fog Fog
2:35 PM 39.2 °F - 39.2 °F 100% 30.04 in 0.2 mi Calm Calm - N/A Fog Fog
2:55 PM 39.2 °F 37.0 °F 39.2 °F 100% 30.03 in 0.2 mi West 3.5 mph - N/A Fog Fog
3:15 PM 41.0 °F - 41.0 °F 100% 30.03 in 0.2 mi Calm Calm - N/A Fog Fog
3:35 PM 41.0 °F - 41.0 °F 100% 30.02 in 0.5 mi Calm Calm - N/A Fog Fog
3:55 PM 41.0 °F - 41.0 °F 100% 30.02 in 0.2 mi Calm Calm - N/A Fog Fog
4:15 PM 41.0 °F - 41.0 °F 100% 30.02 in 0.2 mi Calm Calm - N/A Fog Fog
4:35 PM 41.0 °F - 41.0 °F 100% 30.01 in 0.2 mi Calm Calm - 0.01 in Fog Fog
4:55 PM 41.0 °F - 41.0 °F 100% 30.01 in 0.5 mi Calm Calm - 0.01 in Fog Fog
5:15 PM 41.0 °F - 41.0 °F 100% 30.00 in 0.5 mi Calm Calm - N/A Fog Fog
5:35 PM 41.0 °F 39.0 °F 41.0 °F 100% 29.99 in 0.5 mi SE 3.5 mph - N/A Fog Fog
5:55 PM 41.0 °F - 41.0 °F 100% 29.99 in 0.2 mi Calm Calm - N/A Fog Fog
6:15 PM 41.0 °F 39.0 °F 41.0 °F 100% 29.98 in 0.2 mi SE 3.5 mph - N/A Fog Fog
6:35 PM 41.0 °F 39.0 °F 41.0 °F 100% 29.98 in 0.5 mi SSE 3.5 mph - N/A Fog Fog
6:55 PM 41.0 °F 39.0 °F 41.0 °F 100% 29.98 in 0.5 mi SSE 3.5 mph - N/A Fog Fog
7:15 PM 41.0 °F - 41.0 °F 100% 29.97 in 0.5 mi Calm Calm - N/A Fog Fog
7:35 PM 41.0 °F - 41.0 °F 100% 29.96 in 0.2 mi Calm Calm - N/A Fog Fog
7:55 PM 41.0 °F 39.0 °F 41.0 °F 100% 29.95 in 0.5 mi SSE 3.5 mph - N/A Fog Fog
8:15 PM 41.0 °F 39.0 °F 41.0 °F 100% 29.95 in 1.2 mi SSW 3.5 mph - N/A   Overcast
8:35 PM 41.0 °F - 41.0 °F 100% 29.94 in 1.8 mi Calm Calm - N/A   Overcast
8:55 PM 41.0 °F - 41.0 °F 100% 29.92 in 0.8 mi Calm Calm - N/A   Overcast
9:15 PM 41.0 °F - 41.0 °F 100% 29.91 in 0.5 mi Calm Calm - N/A Fog Fog
9:35 PM 41.0 °F 39.0 °F 41.0 °F 100% 29.90 in 0.5 mi SSE 3.5 mph - N/A Fog Fog
9:55 PM 42.8 °F - 42.8 °F 100% 29.89 in 0.8 mi Calm Calm - N/A   Overcast
10:15 PM 42.8 °F - 42.8 °F 100% 29.89 in 1.8 mi Calm Calm - N/A   Overcast
10:35 PM 42.8 °F - 42.8 °F 100% 29.87 in 0.5 mi Calm Calm - N/A Fog Fog
10:55 PM 42.8 °F - 42.8 °F 100% 29.85 in 0.2 mi Calm Calm - N/A Rain Light Rain
11:15 PM 42.8 °F - 42.8 °F 100% 29.83 in 0.5 mi Calm Calm - N/A Rain Light Rain
11:35 PM 42.8 °F 41.1 °F 42.8 °F 100% 29.82 in 0.5 mi WSW 3.5 mph - 0.14 in Rain Light Rain
11:55 PM 42.8 °F 38.6 °F 42.8 °F 100% 29.83 in 2.0 mi West 6.9 mph - 0.15 in Rain Rain